Regional Weather Roundup
Issued by NWS

Home | Current Version | Previous Version | Text Only | Print | Product List | Glossary Off
Versions: 1 2 3 4 5 6 7 8 9 10 11 12 13 14 15 16 17 18 19 20 21 22 23 24 25 26 27 28 29 30 31 32 33 34 35 36 37 38 39 40 41 42 43 44 45 46 47 48 49 50

585
ASUS43 KMPX 210101
RWRMN
WEATHER ROUNDUP FOR MINNESOTA
NATIONAL WEATHER SERVICE TWIN CITIES/CHANHASSEN MN
800 PM CDT SUN MAY 20 2018


NOTE: "FAIR" INDICATES FEW OR NO CLOUDS BELOW 12,000 FEET WITH NO
SIGNIFICANT WEATHER AND/OR OBSTRUCTIONS TO VISIBILITY. N/A MEANS
CURRENT SKY AND/OR WEATHER CONDITIONS ARE NOT AVAILABLE.

MNZ060>063-068>070-210200-
   Twin Cities Metro

CITY           SKY/WX    TMP DP  RH WIND       PRES   REMARKS
TWIN CITIES    MOCLDY    70  34  26 SE10      30.12F
ST PAUL        FAIR      67  36  31 SE6       30.13S
CRYSTAL        FAIR      69  28  21 E8        30.11F
BLAINE         MOCLDY    68  34  28 E7        30.13S
LAKEVILLE      FAIR      66  37  34 E8        30.13R
EDEN PRAIRIE   FAIR      67  37  33 SE7       30.12S
SOUTH ST PAUL  FAIR      69  30  23 CALM      30.13R
LAKE ELMO      FAIR      68  32  26 E5        30.14F
$$
MNZ001>005-007-008-013>017-022>024-027-028-210200-
   Northwest Minnesota

CITY           SKY/WX    TMP DP  RH WIND       PRES   REMARKS
BEMIDJI        FAIR      68  34  28 CALM      30.15S
HALLOCK        FAIR      73  30  20 SW6       30.10F
ROSEAU         FAIR      70  45  40 S5        30.12F
WARROAD        FAIR      72  39  30 SW3       30.13F
THIEF RVR FALL FAIR      69  32  25 S6        30.14F
CROOKSTON      FAIR      72  32  23 S3        30.13F
FOSSTON        FAIR      70  30  23 CALM      30.15F
DETROIT LAKES  FAIR      68  32  26 CALM      30.15F
MOORHEAD       FAIR      72  30  21 E7        30.12F
PARK RAPIDS    FAIR      69  25  19 E6        30.15F
MAHNOMEN       FAIR      69  37  30 CALM      30.14F
$$
MNZ006-009>011-018-025>026-210200-
   North Central Minnesota

CITY           SKY/WX    TMP DP  RH WIND       PRES   REMARKS
BAUDETTE       FAIR      68  36  30 N6        30.13F
FLAG ISLAND    FAIR      55  46  71 S7        30.11S
INTL FALLS     FAIR      72  32  23 CALM      30.12F
WASKISH        FAIR      66  32  28 CALM      30.15F
BIG FORK       FAIR      66  39  37 SW3       30.14F
LONGVILLE      FAIR      66  36  32 CALM      30.16S
GRAND RAPIDS   FAIR      65  38  36 CALM      30.18F
CRANE LAKE     FAIR      68  30  24 CALM      30.15F
ORR            FAIR      66  27  22 CALM      30.12F
COOK           FAIR      70  28  21 CALM      30.15F
WALKER         FAIR      65  33  30 CALM      30.16F
$$
MNZ012-019>021-037-210200-
   Northeast Minnesota

CITY           SKY/WX    TMP DP  RH WIND       PRES   REMARKS
DULUTH         FAIR      63  27  25 VRB5      30.17F
ELY            FAIR      68  28  22 CALM      30.15F
HIBBING        FAIR      64  39  39 CALM      30.15F
EVELETH        FAIR      68  32  26 CALM      30.17F
DULUTH HARBOR  FAIR      57  48  72 CALM      30.16F
TWO HARBORS    FAIR      66  37  34 CALM      30.15F
SILVER BAY     FAIR      61  30  31 CALM      30.15F
GRAND MARAIS     N/A     41  35  79 SW6       30.17S
G MARAIS ARPRT FAIR      57  28  33 S5        30.19S
$$
MNZ029>031-032-039>041-046>048-054>057-064-210200-
   West Central Minnesota

CITY           SKY/WX    TMP DP  RH WIND       PRES   REMARKS
FERGUS FALLS   FAIR      68  34  28 E6        30.09S
WHEATON        CLEAR     70  21  16 E10       30.13S
MORRIS         CLEAR     70  27  19 SE14      30.11F
ALEXANDRIA     FAIR      68  30  24 E8        30.15S
ELBOW LAKE     FAIR      67  33  28 SE10      30.13F
WADENA         FAIR      66  34  30 E6        30.14F
GLENWOOD       FAIR      66  27  22 SE10      30.14F
APPLETON       PTCLDY    70  19  14 E9        30.10F
BENSON         CLEAR     68  23  18 E5        30.13F
ORTONVILLE     CLOUDY    70  27  19 E9        30.11S
MADISON        MOCLDY    72  21  15 E10       30.10S
WILLMAR        FAIR      66  30  26 E8        30.15R
$$
MNZ033>034-036-042>043-049>051-058-059-210200-
   Central Minnesota

CITY           SKY/WX    TMP DP  RH WIND       PRES   REMARKS
ST CLOUD       FAIR      67  24  19 E7        30.13F
SAUK CENTRE    FAIR      66  30  25 E8        30.14S
PAYNESVILLE    FAIR      67  28  23 E5        30.14S
AITKIN         FAIR      64  30  27 CALM      30.13F
PINE RIVER     FAIR      64  36  34 SE3       30.18S
BRAINERD       FAIR      69  32  25 NE6       30.14F
STAPLES        FAIR      66  27  22 NE5       30.14F
LONG PRAIRIE   FAIR      64  32  29 N7        30.15S
LITTLE FALLS   FAIR      66  32  28 CALM      30.14F
LITCHFIELD     FAIR      66  30  26 E7        30.13S
BUFFALO        FAIR      68  26  20 NE6       30.14S
MAPLE LAKE     FAIR      68  32  26 E3        30.14S
HUTCHINSON     FAIR      68  35  28 E8        30.14R
$$
MNZ037-044-045-052-053-210200-
   East Central Minnesota

CITY           SKY/WX    TMP DP  RH WIND       PRES   REMARKS
PRINCETON      FAIR      68  28  22 CALM      30.14F
MORA           FAIR      64  30  27 CALM      30.15F
CAMBRIDGE      FAIR      70  43  37 E3        30.14F
RUSH CITY      FAIR      66  30  25 CALM      30.14S
MOOSE LAKE     FAIR      66  32  28 NE5       30.14F
HINCKLEY       FAIR      68  32  26 CALM      30.14S
CLOQUET        FAIR      64  18  16 CALM      30.17F
MCGREGOR       FAIR      66  30  26 E6        30.16S
$$
MNZ071>073-080-081-089-090-097-098-210200-
   Southwest Minnesota

CITY           SKY/WX    TMP DP  RH WIND       PRES   REMARKS
MONTEVIDEO     PTCLDY    70  27  19 SE10      30.11S
GRANITE FALLS  CLOUDY    70  49  47 E9        30.12R
CANBY          CLOUDY    67  49  52 E10       30.11R
MARSHALL       CLOUDY    66  50  56 SE7       30.11S
REDWOOD FALLS  CLOUDY    67  49  52 SE10      30.10S
OLIVIA         CLOUDY    70  41  35 E9        30.11S
PIPESTONE      CLOUDY    61  50  67 SE6       30.10F
WINDOM         CLOUDY    63  43  48 E8        30.10F
WORTHINGTON    CLOUDY    61  52  72 E9        30.11S
JACKSON        MOCLDY    59  52  77 E8        30.11F
TRACY          CLOUDY    65  52  62 SE7       30.10F
SLAYTON        CLOUDY    63  50  62 E10       30.12F
$$
MNZ065>067-074>077-082>085-091>093-210200-
   South Central Minnesota

CITY           SKY/WX    TMP DP  RH WIND       PRES   REMARKS
MANKATO        FAIR      65  50  58 E9        30.12F
NEW ULM        MOCLDY    64  50  59 SE9       30.11F
ST JAMES       PTCLDY    63  52  67 E7        30.12F
FAIRMONT       MOCLDY    59  52  77 E10       30.12S
GLENCOE        FAIR      69  35  28 E6        30.12S
FARIBAULT      FAIR      66  50  55 CALM      30.13S
OWATONNA       FAIR      63  50  63 E7        30.13F
WASECA         MOCLDY    63  50  63 E12       30.14S
ALBERT LEA     CLOUDY    57  48  72 E9        30.14R
$$
MNZ078>079-086>088-094>096-210200-
   Southeast Minnesota

CITY           SKY/WX    TMP DP  RH WIND       PRES   REMARKS
ROCHESTER      CLOUDY    58  51  78 E8        30.14F
RED WING       FAIR      68  39  34 CALM      30.12R
STANTON        MOCLDY    68  46  45 SE3       30.12S
DODGE CENTER   MOCLDY    61  48  63 E8        30.14S
WINONA         FAIR      59  48  67 E3        30.13S
AUSTIN         CLOUDY    55  52  88 E8        30.14S
PRESTON        CLOUDY    55  50  85 E6        30.16R
$$
ABBREVIATIONS USED IN REMARKS
   TC - TEMPERATURES IN CELSIUS
  WCI - WIND CHILL INDEX
   HX - HEAT INDEX
  VSB - VISIBILITY
$$




USA.gov is the U.S. government's official web portal to all federal, state and local government web resources and services.